Location: Newark
(48.6461°N, 4.3644°W)
Time: 18:01:40
(UTC+00:00)

Transit 4A - Pass Details

Date: 24 January 2020
Orbit: 872 x 973 km, 66.8° (Epoch: 22 February)

Event Time Altitude Azimuth Distance (km) Brightness Sun altitude
Rises 07:39:15 0° 219° (SW) 3,543 10.8 -3.5°
Reaches altitude 10° 07:41:47 10° 221° (SW) 2,589 10.1 -3.1°
Maximum altitude 07:47:47 74° 307° (NW) 930 7.8 -2.2°
Drops below altitude 10° 07:53:41 10° 33° (NNE) 2,547 10.3 -1.4°
Sets 07:56:10 0° 35° (NE) 3,481 11.0 -1.0°
